DL1MX-13 Weather Reports


time (UTC)temp
C
wind
direction
speed
KPH
gust
KPH
rain 1hr
cm
rain 24hr
cm
rain mn
cm
humidity
%
barometer
mb
20260503175201 16 52 9.7 0.0 0.00 0.00 0.00 47 1012.4
20260503175102 16 52 9.7 0.0 0.00 0.00 0.00 47 1012.4
20260503175002 17 37 8.0 0.0 0.00 0.00 0.00 47 1012.4
20260503174902 17 37 8.0 0.0 0.00 0.00 0.00 47 1012.3
20260503174802 17 37 9.7 0.0 0.00 0.00 0.00 47 1012.3
20260503174701 17 37 9.7 0.0 0.00 0.00 0.00 47 1012.3
20260503174602 17 27 11.3 0.0 0.00 0.00 0.00 47 1012.3
20260503174501 17 27 11.3 0.0 0.00 0.00 0.00 47 1012.4
20260503174402 17 27 11.3 0.0 0.00 0.00 0.00 47 1012.3
20260503174302 17 32 8.0 0.0 0.00 0.00 0.00 48 1012.3
20260503174202 17 32 8.0 0.0 0.00 0.00 0.00 48 1012.4
20260503174102 17 32 8.0 0.0 0.00 0.00 0.00 48 1012.3
20260503174002 17 32 8.0 0.0 0.00 0.00 0.00 48 1012.3
20260503173902 17 32 8.0 0.0 0.00 0.00 0.00 48 1012.3
20260503173801 17 35 8.0 0.0 0.00 0.00 0.00 47 1012.3
20260503173702 17 35 8.0 0.0 0.00 0.00 0.00 47 1012.3
20260503173602 17 32 6.4 0.0 0.00 0.00 0.00 47 1012.3
20260503173502 17 32 6.4 0.0 0.00 0.00 0.00 47 1012.3
20260503173401 17 32 9.7 0.0 0.00 0.00 0.00 46 1012.3
20260503173302 17 32 9.7 0.0 0.00 0.00 0.00 46 1012.3
20260503173201 17 32 9.7 0.0 0.00 0.00 0.00 46 1012.3
20260503173102 17 30 9.7 0.0 0.00 0.00 0.00 46 1012.3
20260503173001 17 30 9.7 0.0 0.00 0.00 0.00 46 1012.3
20260503172902 17 30 9.7 0.0 0.00 0.00 0.00 46 1012.3
20260503172802 17 30 9.7 0.0 0.00 0.00 0.00 46 1012.3
20260503172701 17 30 9.7 0.0 0.00 0.00 0.00 46 1012.3
20260503172602 17 35 9.7 0.0 0.00 0.00 0.00 46 1012.3
20260503172501 17 35 9.7 0.0 0.00 0.00 0.00 46 1012.2
20260503172402 17 35 9.7 0.0 0.00 0.00 0.00 46 1012.2
20260503172301 17 35 8.0 0.0 0.00 0.00 0.00 46 1012.3
20260503172202 17 35 8.0 0.0 0.00 0.00 0.00 46 1012.3
20260503172102 17 32 12.9 0.0 0.00 0.00 0.00 46 1012.3
20260503172002 17 32 12.9 0.0 0.00 0.00 0.00 46 1012.3
20260503171902 17 32 12.9 0.0 0.00 0.00 0.00 46 1012.2
20260503171801 17 25 12.9 0.0 0.00 0.00 0.00 46 1012.3
20260503171702 17 25 12.9 0.0 0.00 0.00 0.00 46 1012.2
20260503171601 17 25 12.9 0.0 0.00 0.00 0.00 46 1012.3
20260503171502 17 25 8.0 0.0 0.00 0.00 0.00 45 1012.2
20260503171402 17 25 8.0 0.0 0.00 0.00 0.00 45 1012.3
20260503171302 17 25 8.0 0.0 0.00 0.00 0.00 45 1012.2
20260503171202 17 25 8.0 0.0 0.00 0.00 0.00 45 1012.2
20260503171101 17 25 8.0 0.0 0.00 0.00 0.00 45 1012.2
20260503171002 17 20 9.7 0.0 0.00 0.00 0.00 46 1012.2
20260503170901 17 20 9.7 0.0 0.00 0.00 0.00 46 1012.3
20260503170802 17 22 8.0 0.0 0.00 0.00 0.00 46 1012.3
20260503170701 17 22 8.0 0.0 0.00 0.00 0.00 46 1012.3
20260503170602 17 17 8.0 0.0 0.00 0.00 0.00 45 1012.3
20260503170501 17 17 8.0 0.0 0.00 0.00 0.00 45 1012.3
20260503170402 17 17 8.0 0.0 0.00 0.00 0.00 45 1012.3
20260503170302 18 15 8.0 0.0 0.00 0.00 0.00 44 1012.3
20260503170201 18 15 8.0 0.0 0.00 0.00 0.00 44 1012.3
20260503160201 18 32 8.0 0.0 0.00 0.00 0.00 46 1012.8
20260503151002 18 27 17.7 0.0 0.00 0.00 0.00 43 1013.2
20260503150901 18 27 17.7 0.0 0.00 0.00 0.00 43 1013.1
20260503150802 18 25 8.0 0.0 0.00 0.00 0.00 43 1013.1
20260503150701 18 25 8.0 0.0 0.00 0.00 0.00 43 1013.2
20260503150602 18 20 11.3 0.0 0.00 0.00 0.00 42 1013.2
20260503150501 18 20 11.3 0.0 0.00 0.00 0.00 42 1013.2
20260503150401 18 20 11.3 0.0 0.00 0.00 0.00 42 1013.1
20260503150302 18 20 16.1 0.0 0.00 0.00 0.00 41 1013.2
20260503150201 18 20 16.1 0.0 0.00 0.00 0.00 41 1013.2
20260503140302 18 15 14.5 0.0 0.00 0.00 0.00 42 1013.5
20260503131402 18 22 9.7 0.0 0.00 0.00 0.00 43 1013.9
20260503131301 18 22 17.7 0.0 0.00 0.00 0.00 42 1013.9
20260503131202 18 22 17.7 0.0 0.00 0.00 0.00 42 1013.9
20260503131101 18 20 17.7 0.0 0.00 0.00 0.00 44 1013.9
20260503131002 18 20 17.7 0.0 0.00 0.00 0.00 44 1014.0
20260503130901 18 20 19.3 0.0 0.00 0.00 0.00 44 1013.9
20260503130802 18 20 19.3 0.0 0.00 0.00 0.00 44 1014.0
20260503130701 18 25 20.9 0.0 0.00 0.00 0.00 44 1014.0
20260503130601 18 25 20.9 0.0 0.00 0.00 0.00 44 1014.0
20260503130502 18 25 20.9 0.0 0.00 0.00 0.00 44 1014.1
20260503130401 18 35 14.5 0.0 0.00 0.00 0.00 45 1014.0
20260503130302 18 35 14.5 0.0 0.00 0.00 0.00 45 1014.0
20260503130201 18 35 14.5 0.0 0.00 0.00 0.00 45 1014.0
20260503120202 17 42 17.7 0.0 0.00 0.00 0.00 50 1014.3
20260503110802 17 25 12.9 0.0 0.00 0.00 0.00 46 1014.7
20260503110702 17 25 12.9 0.0 0.00 0.00 0.00 46 1014.7
20260503110601 17 37 14.5 0.0 0.00 0.00 0.00 46 1014.7
20260503110502 17 37 14.5 0.0 0.00 0.00 0.00 46 1014.7
20260503110401 17 37 14.5 0.0 0.00 0.00 0.00 46 1014.7
20260503110302 17 35 17.7 0.0 0.00 0.00 0.00 46 1014.7
20260503110202 17 35 17.7 0.0 0.00 0.00 0.00 46 1014.7
20260503100202 18 25 16.1 0.0 0.00 0.00 0.00 48 1015.2
20260503090502 19 35 17.7 0.0 0.00 0.00 0.00 49 1015.1
20260503090401 19 35 17.7 0.0 0.00 0.00 0.00 49 1015.1
20260503090302 19 25 17.7 0.0 0.00 0.00 0.00 49 1015.1
20260503090201 19 25 17.7 0.0 0.00 0.00 0.00 49 1015.1
20260503081601 19 45 12.9 0.0 0.00 0.00 0.00 48 1014.9
20260503081502 19 32 12.9 0.0 0.00 0.00 0.00 46 1014.9
20260503081401 19 32 12.9 0.0 0.00 0.00 0.00 46 1014.9
20260503081302 19 45 12.9 0.0 0.00 0.00 0.00 47 1015.1
20260503081202 19 45 12.9 0.0 0.00 0.00 0.00 47 1014.9
20260503081102 19 45 12.9 0.0 0.00 0.00 0.00 47 1014.9
20260503081002 19 40 9.7 0.0 0.00 0.00 0.00 46 1015.1
20260503080901 19 40 9.7 0.0 0.00 0.00 0.00 46 1014.9
20260503080802 19 12 20.9 0.0 0.00 0.00 0.00 45 1015.1
20260503080701 19 12 20.9 0.0 0.00 0.00 0.00 45 1014.9
20260503080602 19 12 20.9 0.0 0.00 0.00 0.00 45 1014.9
20260503080502 19 357 16.1 0.0 0.00 0.00 0.00 46 1014.9
20260503080401 19 357 16.1 0.0 0.00 0.00 0.00 46 1014.9
20260503080302 18 32 9.7 0.0 0.00 0.00 0.00 45 1014.9
20260503080201 18 32 9.7 0.0 0.00 0.00 0.00 45 1014.9
20260503072902 18 25 16.1 0.0 0.00 0.00 0.00 45 1014.8
20260503072802 18 25 16.1 0.0 0.00 0.00 0.00 45 1014.7
20260503072701 18 20 17.7 0.0 0.00 0.00 0.00 45 1014.8
20260503072602 18 20 17.7 0.0 0.00 0.00 0.00 45 1014.7
20260503072501 18 20 17.7 0.0 0.00 0.00 0.00 45 1014.8
20260503072402 18 20 17.7 0.0 0.00 0.00 0.00 45 1014.8
20260503072301 18 20 17.7 0.0 0.00 0.00 0.00 45 1014.8
20260503072202 17 15 12.9 0.0 0.00 0.00 0.00 45 1014.8
20260503072102 17 15 12.9 0.0 0.00 0.00 0.00 45 1014.8
20260503072002 18 25 17.7 0.0 0.00 0.00 0.00 46 1014.8
20260503071902 18 25 17.7 0.0 0.00 0.00 0.00 46 1014.8
20260503071801 18 25 17.7 0.0 0.00 0.00 0.00 46 1014.7
20260503071702 18 7 20.9 0.0 0.00 0.00 0.00 46 1014.7
20260503071601 18 7 20.9 0.0 0.00 0.00 0.00 46 1014.7
20260503071502 17 5 11.3 0.0 0.00 0.00 0.00 46 1014.7
20260503071401 17 15 11.3 0.0 0.00 0.00 0.00 46 1014.6
20260503071302 17 15 11.3 0.0 0.00 0.00 0.00 46 1014.6
20260503071202 17 15 11.3 0.0 0.00 0.00 0.00 46 1014.7
20260503071101 18 27 12.9 0.0 0.00 0.00 0.00 47 1014.6
20260503071002 18 27 12.9 0.0 0.00 0.00 0.00 47 1014.6
20260503070901 18 27 9.7 0.0 0.00 0.00 0.00 46 1014.6
20260503070802 18 27 9.7 0.0 0.00 0.00 0.00 46 1014.6
20260503070702 18 27 12.9 0.0 0.00 0.00 0.00 46 1014.6
20260503070601 18 27 11.3 0.0 0.00 0.00 0.00 46 1014.7
20260503070502 18 27 11.3 0.0 0.00 0.00 0.00 46 1014.8
20260503070401 18 27 11.3 0.0 0.00 0.00 0.00 46 1014.8
20260503070302 18 27 11.3 0.0 0.00 0.00 0.00 46 1014.8
20260503070201 18 27 11.3 0.0 0.00 0.00 0.00 46 1014.7
20260503060301 16 25 8.0 0.0 0.00 0.00 0.00 51 1014.6
20260503060202 16 25 8.0 0.0 0.00 0.00 0.00 51 1014.6
20260503055102 15 35 9.7 0.0 0.00 0.00 0.00 53 1014.6
20260503055002 15 35 9.7 0.0 0.00 0.00 0.00 53 1014.6
20260503054901 15 35 9.7 0.0 0.00 0.00 0.00 53 1014.6
20260503054802 15 20 6.4 0.0 0.00 0.00 0.00 55 1014.6
20260503054701 15 20 6.4 0.0 0.00 0.00 0.00 55 1014.6
20260503054602 15 20 6.4 0.0 0.00 0.00 0.00 55 1014.6
20260503054501 15 22 6.4 0.0 0.00 0.00 0.00 55 1014.6
20260503054402 15 22 6.4 0.0 0.00 0.00 0.00 55 1014.6
20260503054302 15 25 8.0 0.0 0.00 0.00 0.00 54 1014.6
20260503054201 15 25 8.0 0.0 0.00 0.00 0.00 54 1014.6
20260503054102 15 25 8.0 0.0 0.00 0.00 0.00 54 1014.6
20260503054001 15 25 8.0 0.0 0.00 0.00 0.00 54 1014.6
20260503053902 15 25 8.0 0.0 0.00 0.00 0.00 54 1014.6
20260503053801 15 25 8.0 0.0 0.00 0.00 0.00 54 1014.6
20260503053702 15 35 11.3 0.0 0.00 0.00 0.00 57 1014.6
20260503053602 15 35 11.3 0.0 0.00 0.00 0.00 57 1014.6
20260503053502 15 55 9.7 0.0 0.00 0.00 0.00 56 1014.6
20260503053402 15 55 9.7 0.0 0.00 0.00 0.00 56 1014.6
20260503053301 15 55 9.7 0.0 0.00 0.00 0.00 56 1014.6
20260503053202 15 45 8.0 0.0 0.00 0.00 0.00 57 1014.6
20260503053101 15 45 8.0 0.0 0.00 0.00 0.00 57 1014.5
20260503053002 15 27 6.4 0.0 0.00 0.00 0.00 57 1014.6
20260503052901 15 27 6.4 0.0 0.00 0.00 0.00 57 1014.6
20260503052802 15 27 6.4 0.0 0.00 0.00 0.00 57 1014.6
20260503052702 13 37 6.4 0.0 0.00 0.00 0.00 59 1014.6
20260503052601 13 37 6.4 0.0 0.00 0.00 0.00 59 1014.6
20260503052502 13 37 6.4 0.0 0.00 0.00 0.00 59 1014.6
20260503052401 13 37 6.4 0.0 0.00 0.00 0.00 59 1014.6
20260503052302 13 37 6.4 0.0 0.00 0.00 0.00 59 1014.6
20260503052201 13 35 4.8 0.0 0.00 0.00 0.00 59 1014.7
20260503052102 13 35 4.8 0.0 0.00 0.00 0.00 59 1014.7
20260503052002 13 35 4.8 0.0 0.00 0.00 0.00 59 1014.6
20260503051901 13 30 4.8 0.0 0.00 0.00 0.00 60 1014.7
20260503051802 13 30 4.8 0.0 0.00 0.00 0.00 60 1014.7
20260503051701 12 40 0.0 0.0 0.00 0.00 0.00 63 1014.7
20260503051602 12 40 0.0 0.0 0.00 0.00 0.00 63 1014.7
20260503051501 12 40 0.0 0.0 0.00 0.00 0.00 63 1014.7
20260503051402 12 40 0.0 0.0 0.00 0.00 0.00 63 1014.7
20260503051301 12 40 0.0 0.0 0.00 0.00 0.00 63 1014.7
20260503051202 12 40 0.0 0.0 0.00 0.00 0.00 63 1014.7
20260503051102 12 50 0.0 0.0 0.00 0.00 0.00 64 1014.7
20260503051001 12 50 0.0 0.0 0.00 0.00 0.00 64 1014.8
20260503050902 11 67 0.0 0.0 0.00 0.00 0.00 67 1014.7
20260503050801 11 67 0.0 0.0 0.00 0.00 0.00 67 1014.8
20260503050702 10 147 0.0 0.0 0.00 0.00 0.00 70 1014.8
20260503050601 10 147 0.0 0.0 0.00 0.00 0.00 70 1014.8
20260503050502 10 147 0.0 0.0 0.00 0.00 0.00 70 1014.8
20260503050402 10 242 0.0 0.0 0.00 0.00 0.00 72 1014.8
20260503050301 10 242 0.0 0.0 0.00 0.00 0.00 72 1014.8
20260503050202 10 242 0.0 0.0 0.00 0.00 0.00 72 1014.8
20260503050002 10 242 0.0 0.0 0.00 0.00 0.00 72 1014.7
20260503045902 10 222 0.0 0.0 0.00 0.00 0.00 73 1014.8
20260503045802 10 222 0.0 0.0 0.00 0.00 0.00 73 1014.8
20260503045702 10 195 0.0 0.0 0.00 0.00 0.00 74 1014.8
20260503045601 10 195 0.0 0.0 0.00 0.00 0.00 74 1014.8
20260503045502 10 195 0.0 0.0 0.00 0.00 0.00 74 1014.8
20260503045401 9 152 0.0 0.0 0.00 0.00 0.00 75 1014.8
20260503045304 9 152 0.0 0.0 0.00 0.00 0.00 75 1014.8
20260503045202 9 237 0.0 0.0 0.00 0.00 0.00 76 1014.8
20260503045102 9 237 0.0 0.0 0.00 0.00 0.00 76 1014.8
20260503045002 9 237 0.0 0.0 0.00 0.00 0.00 76 1014.8
20260503044901 9 187 0.0 0.0 0.00 0.00 0.00 77 1014.8
20260503044802 9 187 0.0 0.0 0.00 0.00 0.00 77 1014.7
20260503044701 8 215 0.0 0.0 0.00 0.00 0.00 78 1014.8
20260503044602 8 215 0.0 0.0 0.00 0.00 0.00 78 1014.8
20260503044501 8 215 0.0 0.0 0.00 0.00 0.00 78 1014.8
20260503044402 8 215 0.0 0.0 0.00 0.00 0.00 79 1014.8
20260503044301 8 215 0.0 0.0 0.00 0.00 0.00 79 1014.8
20260503044201 8 207 0.0 0.0 0.00 0.00 0.00 80 1014.8
20260503044102 8 207 0.0 0.0 0.00 0.00 0.00 80 1014.8
20260503044001 8 207 0.0 0.0 0.00 0.00 0.00 80 1014.7
20260503043902 8 212 0.0 0.0 0.00 0.00 0.00 80 1014.8
20260503043801 8 212 0.0 0.0 0.00 0.00 0.00 80 1014.8
20260503043702 7 215 0.0 0.0 0.00 0.00 0.00 80 1014.8
20260503043602 7 215 0.0 0.0 0.00 0.00 0.00 80 1014.8
20260503043501 7 215 0.0 0.0 0.00 0.00 0.00 80 1014.8
20260503043402 7 202 0.0 0.0 0.00 0.00 0.00 80 1014.8
20260503043301 7 202 0.0 0.0 0.00 0.00 0.00 80 1014.8
20260503043202 7 210 0.0 0.0 0.00 0.00 0.00 81 1014.8
20260503043101 7 210 0.0 0.0 0.00 0.00 0.00 81 1014.8
20260503043002 7 210 0.0 0.0 0.00 0.00 0.00 81 1014.8
20260503042902 7 222 0.0 0.0 0.00 0.00 0.00 81 1014.8
20260503042802 7 222 0.0 0.0 0.00 0.00 0.00 81 1014.8
20260503042702 7 222 0.0 0.0 0.00 0.00 0.00 81 1014.8
20260503042601 7 212 0.0 0.0 0.00 0.00 0.00 82 1014.9
20260503042502 7 212 0.0 0.0 0.00 0.00 0.00 82 1014.9
20260503042401 6 220 0.0 0.0 0.00 0.00 0.00 83 1014.9
20260503042304 6 220 0.0 0.0 0.00 0.00 0.00 83 1014.9
20260503042201 6 220 0.0 0.0 0.00 0.00 0.00 83 1014.9
20260503042102 6 220 0.0 0.0 0.00 0.00 0.00 83 1014.9
20260503042002 6 220 0.0 0.0 0.00 0.00 0.00 83 1014.9
20260503041901 6 220 0.0 0.0 0.00 0.00 0.00 83 1014.9
20260503041802 6 220 0.0 0.0 0.00 0.00 0.00 83 1014.9
20260503041701 6 220 0.0 0.0 0.00 0.00 0.00 83 1014.9
20260503041602 6 220 0.0 0.0 0.00 0.00 0.00 83 1014.9
20260503041502 6 220 0.0 0.0 0.00 0.00 0.00 83 1014.9
20260503041402 6 220 0.0 0.0 0.00 0.00 0.00 83 1014.9
20260503041302 6 220 0.0 0.0 0.00 0.00 0.00 83 1014.9
20260503041201 6 220 0.0 0.0 0.00 0.00 0.00 83 1014.9
20260503041102 6 220 0.0 0.0 0.00 0.00 0.00 82 1014.9
20260503041001 6 220 0.0 0.0 0.00 0.00 0.00 82 1014.9
20260503040902 6 210 0.0 0.0 0.00 0.00 0.00 83 1014.9
20260503040802 6 210 0.0 0.0 0.00 0.00 0.00 83 1014.9
20260503040702 6 210 0.0 0.0 0.00 0.00 0.00 83 1014.9
20260503040602 6 210 0.0 0.0 0.00 0.00 0.00 83 1014.9
20260503040501 6 210 0.0 0.0 0.00 0.00 0.00 83 1014.9
20260503040402 6 210 0.0 0.0 0.00 0.00 0.00 83 1014.8
20260503040301 6 195 0.0 0.0 0.00 0.00 0.00 83 1014.8
20260503040202 6 195 0.0 0.0 0.00 0.00 0.00 83 1014.9
20260503040002 6 215 0.0 0.0 0.00 0.00 0.00 83 1014.9
20260503035902 6 215 0.0 0.0 0.00 0.00 0.00 83 1014.9
20260503035802 6 215 0.0 0.0 0.00 0.00 0.00 84 1014.9
20260503035702 6 215 0.0 0.0 0.00 0.00 0.00 84 1014.9
20260503035601 6 220 0.0 0.0 0.00 0.00 0.00 84 1014.9
20260503035502 6 220 0.0 0.0 0.00 0.00 0.00 84 1014.9
20260503035401 6 220 0.0 0.0 0.00 0.00 0.00 84 1014.9
20260503035304 6 220 0.0 0.0 0.00 0.00 0.00 83 1014.9
20260503035201 6 220 0.0 0.0 0.00 0.00 0.00 83 1014.9
20260503035102 6 225 0.0 0.0 0.00 0.00 0.00 83 1014.9
20260503035002 6 225 0.0 0.0 0.00 0.00 0.00 83 1014.9
20260503034901 6 225 0.0 0.0 0.00 0.00 0.00 83 1014.9
20260503034802 6 230 0.0 0.0 0.00 0.00 0.00 83 1014.9
20260503034701 6 230 0.0 0.0 0.00 0.00 0.00 83 1014.9
20260503034602 6 225 0.0 0.0 0.00 0.00 0.00 82 1014.9
20260503034501 6 225 0.0 0.0 0.00 0.00 0.00 82 1014.8
20260503034402 6 225 0.0 0.0 0.00 0.00 0.00 82 1014.9
20260503034301 6 220 0.0 0.0 0.00 0.00 0.00 82 1014.9
20260503034202 6 220 0.0 0.0 0.00 0.00 0.00 82 1014.9
20260503033801 6 217 4.8 0.0 0.00 0.00 0.00 82 1014.9
20260503033702 6 217 4.8 0.0 0.00 0.00 0.00 82 1014.9
20260503033601 6 205 4.8 0.0 0.00 0.00 0.00 82 1014.9
20260503033402 6 205 4.8 0.0 0.00 0.00 0.00 82 1014.9
20260503033301 6 190 4.8 0.0 0.00 0.00 0.00 83 1014.8
20260503033202 6 190 4.8 0.0 0.00 0.00 0.00 83 1014.8
20260503033101 6 190 4.8 0.0 0.00 0.00 0.00 83 1014.8
20260503033002 6 217 0.0 0.0 0.00 0.00 0.00 82 1014.8
20260503032901 6 217 0.0 0.0 0.00 0.00 0.00 82 1014.8
20260503032802 6 217 0.0 0.0 0.00 0.00 0.00 82 1014.8
20260503032701 6 217 0.0 0.0 0.00 0.00 0.00 82 1014.8
20260503032602 6 210 4.8 0.0 0.00 0.00 0.00 83 1014.8
20260503032502 6 210 4.8 0.0 0.00 0.00 0.00 83 1014.8
20260503032401 6 210 4.8 0.0 0.00 0.00 0.00 83 1014.8
20260503032304 6 200 0.0 0.0 0.00 0.00 0.00 83 1014.8
20260503032201 6 200 0.0 0.0 0.00 0.00 0.00 83 1014.8
20260503032102 6 200 0.0 0.0 0.00 0.00 0.00 83 1014.8
20260503032002 6 200 0.0 0.0 0.00 0.00 0.00 83 1014.8
20260503031902 6 200 0.0 0.0 0.00 0.00 0.00 83 1014.8
20260503031802 6 197 0.0 0.0 0.00 0.00 0.00 83 1014.7
20260503031701 6 197 0.0 0.0 0.00 0.00 0.00 83 1014.8
20260503031602 6 215 4.8 0.0 0.00 0.00 0.00 83 1014.7
20260503031501 6 215 4.8 0.0 0.00 0.00 0.00 83 1014.7
20260503031402 6 215 4.8 0.0 0.00 0.00 0.00 83 1014.7
20260503031301 6 215 0.0 0.0 0.00 0.00 0.00 83 1014.8
20260503031202 6 215 0.0 0.0 0.00 0.00 0.00 83 1014.8
20260503031102 6 215 0.0 0.0 0.00 0.00 0.00 83 1014.8
20260503031001 6 215 0.0 0.0 0.00 0.00 0.00 83 1014.8
20260503030902 6 215 0.0 0.0 0.00 0.00 0.00 83 1014.8
20260503030801 6 215 0.0 0.0 0.00 0.00 0.00 83 1014.8
20260503030702 6 215 0.0 0.0 0.00 0.00 0.00 83 1014.8
20260503030601 6 220 0.0 0.0 0.00 0.00 0.00 83 1014.8
20260503030502 6 220 0.0 0.0 0.00 0.00 0.00 83 1014.8
20260503030402 6 220 0.0 0.0 0.00 0.00 0.00 83 1014.8
20260503030301 6 220 0.0 0.0 0.00 0.00 0.00 83 1014.8
20260503030202 6 220 0.0 0.0 0.00 0.00 0.00 83 1014.8
20260503030002 6 210 0.0 0.0 0.00 0.00 0.00 82 1014.9
20260503025901 6 210 0.0 0.0 0.00 0.00 0.00 82 1014.8
20260503025802 6 220 0.0 0.0 0.00 0.00 0.00 82 1014.9
20260503025702 6 220 0.0 0.0 0.00 0.00 0.00 82 1014.9
20260503025601 6 220 0.0 0.0 0.00 0.00 0.00 82 1014.9
20260503025502 6 217 0.0 0.0 0.00 0.00 0.00 82 1014.9
20260503025401 6 217 0.0 0.0 0.00 0.00 0.00 82 1014.9
20260503025304 6 215 0.0 0.0 0.00 0.00 0.00 82 1014.9
20260503025202 6 215 0.0 0.0 0.00 0.00 0.00 82 1014.9
20260503025101 6 215 0.0 0.0 0.00 0.00 0.00 82 1014.9
20260503025002 6 215 0.0 0.0 0.00 0.00 0.00 82 1014.9
20260503024901 6 215 0.0 0.0 0.00 0.00 0.00 82 1014.9
20260503024802 6 205 0.0 0.0 0.00 0.00 0.00 83 1014.9
20260503024702 6 205 0.0 0.0 0.00 0.00 0.00 83 1014.9
20260503024602 6 205 0.0 0.0 0.00 0.00 0.00 83 1015.1
20260503024502 6 205 0.0 0.0 0.00 0.00 0.00 83 1014.9
20260503024402 6 205 0.0 0.0 0.00 0.00 0.00 83 1014.9
20260503024302 6 200 0.0 0.0 0.00 0.00 0.00 83 1015.1
20260503024201 6 200 0.0 0.0 0.00 0.00 0.00 83 1015.1
20260503024102 6 200 0.0 0.0 0.00 0.00 0.00 83 1015.1
20260503024001 6 207 0.0 0.0 0.00 0.00 0.00 83 1015.1
20260503023902 6 207 0.0 0.0 0.00 0.00 0.00 83 1015.1
20260503023801 6 207 0.0 0.0 0.00 0.00 0.00 83 1015.1
20260503023701 6 205 0.0 0.0 0.00 0.00 0.00 82 1015.1
20260503023602 6 205 0.0 0.0 0.00 0.00 0.00 82 1015.1
20260503023501 6 205 0.0 0.0 0.00 0.00 0.00 82 1015.1
20260503023402 6 205 0.0 0.0 0.00 0.00 0.00 82 1015.1
20260503023301 6 205 0.0 0.0 0.00 0.00 0.00 82 1015.1
20260503023202 6 207 0.0 0.0 0.00 0.00 0.00 83 1015.1
20260503023101 6 207 0.0 0.0 0.00 0.00 0.00 83 1015.1
20260503023002 6 207 0.0 0.0 0.00 0.00 0.00 83 1015.1
20260503022902 6 207 0.0 0.0 0.00 0.00 0.00 83 1015.1
20260503022801 6 207 0.0 0.0 0.00 0.00 0.00 83 1015.1
20260503022702 6 210 0.0 0.0 0.00 0.00 0.00 83 1015.1
20260503022601 6 210 0.0 0.0 0.00 0.00 0.00 83 1015.1
20260503022502 6 195 0.0 0.0 0.00 0.00 0.00 83 1015.1
20260503022401 6 195 0.0 0.0 0.00 0.00 0.00 83 1015.2
20260503022304 6 195 0.0 0.0 0.00 0.00 0.00 83 1015.1
20260503022202 6 187 0.0 0.0 0.00 0.00 0.00 83 1015.2
20260503022102 6 187 0.0 0.0 0.00 0.00 0.00 83 1015.2
20260503022002 6 187 0.0 0.0 0.00 0.00 0.00 83 1015.2
20260503021901 6 215 0.0 0.0 0.00 0.00 0.00 82 1015.2
20260503021802 6 215 0.0 0.0 0.00 0.00 0.00 82 1015.2
20260503021701 6 215 0.0 0.0 0.00 0.00 0.00 83 1015.2
20260503021602 6 215 0.0 0.0 0.00 0.00 0.00 83 1015.2
20260503021501 6 215 0.0 0.0 0.00 0.00 0.00 83 1015.2
20260503021402 6 215 0.0 0.0 0.00 0.00 0.00 83 1015.2
20260503021302 6 215 0.0 0.0 0.00 0.00 0.00 83 1015.3
20260503021201 6 215 0.0 0.0 0.00 0.00 0.00 83 1015.3
20260503021102 6 220 0.0 0.0 0.00 0.00 0.00 83 1015.3
20260503021001 6 220 0.0 0.0 0.00 0.00 0.00 83 1015.3
20260503020902 6 220 0.0 0.0 0.00 0.00 0.00 83 1015.3
20260503020801 6 220 0.0 0.0 0.00 0.00 0.00 83 1015.3
20260503020702 6 202 0.0 0.0 0.00 0.00 0.00 83 1015.3
20260503020602 6 202 0.0 0.0 0.00 0.00 0.00 83 1015.3
20260503020502 6 202 0.0 0.0 0.00 0.00 0.00 83 1015.4
20260503020401 6 200 0.0 0.0 0.00 0.00 0.00 83 1015.3
20260503020302 6 200 0.0 0.0 0.00 0.00 0.00 83 1015.4
20260503020201 6 200 0.0 0.0 0.00 0.00 0.00 83 1015.4
20260503020001 6 215 0.0 0.0 0.00 0.00 0.00 83 1015.3
20260503015902 6 220 0.0 0.0 0.00 0.00 0.00 83 1015.4
20260503015802 6 220 0.0 0.0 0.00 0.00 0.00 83 1015.4
20260503015701 6 227 0.0 0.0 0.00 0.00 0.00 82 1015.4
20260503015602 6 227 0.0 0.0 0.00 0.00 0.00 82 1015.4
20260503015501 6 227 0.0 0.0 0.00 0.00 0.00 82 1015.4
20260503015402 6 215 0.0 0.0 0.00 0.00 0.00 82 1015.4
20260503015302 6 215 0.0 0.0 0.00 0.00 0.00 82 1015.4
20260503015202 6 217 0.0 0.0 0.00 0.00 0.00 81 1015.4
20260503015102 6 217 0.0 0.0 0.00 0.00 0.00 81 1015.4
20260503015001 6 217 0.0 0.0 0.00 0.00 0.00 81 1015.4
20260503014902 6 217 0.0 0.0 0.00 0.00 0.00 81 1015.4
20260503014801 6 217 0.0 0.0 0.00 0.00 0.00 81 1015.4
20260503014702 7 200 0.0 0.0 0.00 0.00 0.00 81 1015.5
20260503014602 7 200 0.0 0.0 0.00 0.00 0.00 81 1015.5
20260503014502 7 200 0.0 0.0 0.00 0.00 0.00 81 1015.5
20260503014402 7 195 0.0 0.0 0.00 0.00 0.00 81 1015.5
20260503014301 7 195 0.0 0.0 0.00 0.00 0.00 81 1015.5
20260503014202 7 195 0.0 0.0 0.00 0.00 0.00 81 1015.5
20260503014101 7 195 0.0 0.0 0.00 0.00 0.00 81 1015.5
20260503014002 7 195 0.0 0.0 0.00 0.00 0.00 81 1015.5
20260503013901 7 190 0.0 0.0 0.00 0.00 0.00 81 1015.5
20260503013802 7 190 0.0 0.0 0.00 0.00 0.00 81 1015.5
20260503013701 7 202 0.0 0.0 0.00 0.00 0.00 81 1015.5
20260503013602 7 202 0.0 0.0 0.00 0.00 0.00 81 1015.6
20260503013502 7 202 0.0 0.0 0.00 0.00 0.00 81 1015.5
20260503013402 7 197 0.0 0.0 0.00 0.00 0.00 81 1015.6
20260503013302 7 197 0.0 0.0 0.00 0.00 0.00 81 1015.6
20260503013202 7 207 0.0 0.0 0.00 0.00 0.00 81 1015.6
20260503013102 7 207 0.0 0.0 0.00 0.00 0.00 81 1015.6
20260503013002 7 207 0.0 0.0 0.00 0.00 0.00 81 1015.6
20260503012802 7 185 0.0 0.0 0.00 0.00 0.00 82 1015.7
20260503012701 7 185 0.0 0.0 0.00 0.00 0.00 82 1015.7
20260503012602 7 190 4.8 0.0 0.00 0.00 0.00 82 1015.7
20260503012501 7 190 4.8 0.0 0.00 0.00 0.00 82 1015.7
20260503012402 7 195 0.0 0.0 0.00 0.00 0.00 82 1015.7
20260503012302 7 195 0.0 0.0 0.00 0.00 0.00 82 1015.7
20260503012201 7 195 0.0 0.0 0.00 0.00 0.00 82 1015.7
20260503012102 7 210 4.8 0.0 0.00 0.00 0.00 82 1015.7
20260503012001 7 210 4.8 0.0 0.00 0.00 0.00 82 1015.7
20260503011902 7 232 4.8 0.0 0.00 0.00 0.00 82 1015.7
20260503011801 7 232 4.8 0.0 0.00 0.00 0.00 82 1015.8
20260503011702 7 232 4.8 0.0 0.00 0.00 0.00 82 1015.8
20260503011601 7 227 4.8 0.0 0.00 0.00 0.00 82 1015.8
20260503011502 7 227 4.8 0.0 0.00 0.00 0.00 82 1015.8
20260503011402 7 220 0.0 0.0 0.00 0.00 0.00 82 1015.8
20260503011301 7 220 0.0 0.0 0.00 0.00 0.00 82 1015.8
20260503011202 7 220 0.0 0.0 0.00 0.00 0.00 82 1015.8
20260503011101 7 195 0.0 0.0 0.00 0.00 0.00 82 1015.9
20260503011002 7 195 0.0 0.0 0.00 0.00 0.00 82 1015.8
20260503010901 7 227 0.0 0.0 0.00 0.00 0.00 82 1015.8
20260503010802 7 227 0.0 0.0 0.00 0.00 0.00 82 1015.8
20260503010702 7 227 0.0 0.0 0.00 0.00 0.00 82 1015.8
20260503010601 7 197 0.0 0.0 0.00 0.00 0.00 81 1015.8
20260503010501 7 197 0.0 0.0 0.00 0.00 0.00 81 1015.8
20260503010402 7 197 0.0 0.0 0.00 0.00 0.00 81 1015.9
20260503010301 7 195 0.0 0.0 0.00 0.00 0.00 82 1015.9
20260503010202 7 195 0.0 0.0 0.00 0.00 0.00 82 1015.9
20260503010002 7 175 0.0 0.0 0.00 0.00 0.00 82 1015.8
20260503005902 7 175 0.0 0.0 0.00 0.00 0.00 82 1015.9
20260503005801 8 205 8.0 0.0 0.00 0.00 0.00 83 1016.0
20260503005702 8 205 8.0 0.0 0.00 0.00 0.00 83 1015.9
20260503005601 7 235 4.8 0.0 0.00 0.00 0.00 83 1015.9
20260503005502 7 235 4.8 0.0 0.00 0.00 0.00 83 1015.9
20260503005401 7 235 4.8 0.0 0.00 0.00 0.00 83 1015.9
20260503005304 7 237 6.4 0.0 0.00 0.00 0.00 82 1016.0
20260503005202 7 237 6.4 0.0 0.00 0.00 0.00 82 1016.0
20260503005101 7 237 6.4 0.0 0.00 0.00 0.00 82 1015.9
20260503005002 7 220 0.0 0.0 0.00 0.00 0.00 81 1016.0
20260503004901 7 220 0.0 0.0 0.00 0.00 0.00 81 1016.0
20260503004802 7 220 0.0 0.0 0.00 0.00 0.00 81 1016.0
20260503004702 7 220 0.0 0.0 0.00 0.00 0.00 81 1016.1
20260503004602 8 222 0.0 0.0 0.00 0.00 0.00 80 1016.1
20260503004502 8 222 0.0 0.0 0.00 0.00 0.00 80 1016.1
20260503004401 8 222 0.0 0.0 0.00 0.00 0.00 80 1016.1
20260503004302 8 215 0.0 0.0 0.00 0.00 0.00 80 1016.1
20260503004201 8 215 0.0 0.0 0.00 0.00 0.00 80 1016.1
20260503004102 8 202 0.0 0.0 0.00 0.00 0.00 81 1016.1
20260503004001 8 202 0.0 0.0 0.00 0.00 0.00 81 1016.1
20260503003902 8 202 0.0 0.0 0.00 0.00 0.00 81 1016.1
20260503003802 8 190 0.0 0.0 0.00 0.00 0.00 81 1016.1
20260503003702 8 190 0.0 0.0 0.00 0.00 0.00 81 1016.1
20260503003602 8 235 0.0 0.0 0.00 0.00 0.00 81 1016.1
20260503003501 8 235 0.0 0.0 0.00 0.00 0.00 81 1016.1
20260503003402 8 235 0.0 0.0 0.00 0.00 0.00 81 1016.1
20260503003301 8 182 0.0 0.0 0.00 0.00 0.00 80 1016.1
20260503003202 8 182 0.0 0.0 0.00 0.00 0.00 80 1016.1
20260503003101 8 182 0.0 0.0 0.00 0.00 0.00 80 1016.0
20260503003002 8 225 0.0 0.0 0.00 0.00 0.00 79 1016.1
20260503002902 8 225 0.0 0.0 0.00 0.00 0.00 79 1016.1
20260503002801 8 237 0.0 0.0 0.00 0.00 0.00 79 1016.1
20260503002702 8 237 0.0 0.0 0.00 0.00 0.00 79 1016.1
20260503002601 8 197 0.0 0.0 0.00 0.00 0.00 79 1016.1
20260503002502 8 197 0.0 0.0 0.00 0.00 0.00 79 1016.1
20260503002401 8 197 0.0 0.0 0.00 0.00 0.00 79 1016.1
20260503002304 8 207 0.0 0.0 0.00 0.00 0.00 79 1016.2
20260503002201 8 207 0.0 0.0 0.00 0.00 0.00 79 1016.2
20260503002102 8 207 0.0 0.0 0.00 0.00 0.00 79 1016.1
20260503002002 8 207 0.0 0.0 0.00 0.00 0.00 79 1016.2
20260503001901 8 207 0.0 0.0 0.00 0.00 0.00 79 1016.1
20260503001802 8 207 0.0 0.0 0.00 0.00 0.00 79 1016.1
20260503001701 8 207 0.0 0.0 0.00 0.00 0.00 79 1016.1
20260503001602 8 207 0.0 0.0 0.00 0.00 0.00 80 1016.1
20260503001501 8 207 0.0 0.0 0.00 0.00 0.00 80 1016.1
20260503001402 8 207 0.0 0.0 0.00 0.00 0.00 80 1016.2
20260503001302 8 210 0.0 0.0 0.00 0.00 0.00 80 1016.1
20260503001201 8 210 0.0 0.0 0.00 0.00 0.00 80 1016.2
20260503001102 7 205 0.0 0.0 0.00 0.00 0.00 80 1016.2
20260503001001 7 205 0.0 0.0 0.00 0.00 0.00 80 1016.2
20260503000902 7 205 0.0 0.0 0.00 0.00 0.00 80 1016.2
20260503000801 7 215 0.0 0.0 0.00 0.00 0.00 80 1016.2
20260503000702 7 215 0.0 0.0 0.00 0.00 0.00 80 1016.3
20260503000602 7 215 0.0 0.0 0.00 0.00 0.00 80 1016.2
20260503000502 7 212 0.0 0.0 0.00 0.00 0.00 80 1016.3
20260503000402 7 212 0.0 0.0 0.00 0.00 0.00 80 1016.3
20260503000301 7 220 4.8 0.0 0.00 0.00 0.00 80 1016.3
20260503000203 7 220 4.8 0.0 0.00 0.00 0.00 80 1016.3
20260503000002 8 215 0.0 0.0 0.00 0.00 0.00 79 1016.3
20260502235902 8 215 0.0 0.0 0.00 0.00 0.00 79 1016.3
20260502235802 8 215 0.0 0.0 0.00 0.00 0.00 79 1016.3
20260502235702 8 212 4.8 0.0 0.00 0.00 0.00 78 1016.3
20260502235601 8 212 4.8 0.0 0.00 0.00 0.00 78 1016.3
20260502235502 8 212 4.8 0.0 0.00 0.00 0.00 78 1016.3
20260502235401 8 212 4.8 0.0 0.00 0.00 0.00 78 1016.4
20260502235304 8 215 0.0 0.0 0.00 0.00 0.00 78 1016.4
20260502235201 8 215 0.0 0.0 0.00 0.00 0.00 78 1016.4
20260502235101 8 215 0.0 0.0 0.00 0.00 0.00 78 1016.3
20260502235002 8 215 0.0 0.0 0.00 0.00 0.00 78 1016.3
20260502234901 8 215 0.0 0.0 0.00 0.00 0.00 78 1016.4
20260502234802 8 212 4.8 0.0 0.00 0.00 0.00 78 1016.4
20260502234701 8 212 4.8 0.0 0.00 0.00 0.00 78 1016.4
20260502234602 8 212 4.8 0.0 0.00 0.00 0.00 78 1016.4
20260502234501 8 217 0.0 0.0 0.00 0.00 0.00 78 1016.4
20260502234402 8 217 0.0 0.0 0.00 0.00 0.00 78 1016.4
20260502234302 8 225 0.0 0.0 0.00 0.00 0.00 78 1016.4
20260502234201 8 225 0.0 0.0 0.00 0.00 0.00 78 1016.4
20260502234102 8 225 0.0 0.0 0.00 0.00 0.00 78 1016.4
20260502234002 8 217 4.8 0.0 0.00 0.00 0.00 76 1016.4
20260502233902 8 217 4.8 0.0 0.00 0.00 0.00 76 1016.3
20260502233802 8 217 4.8 0.0 0.00 0.00 0.00 76 1016.4
20260502233702 8 217 4.8 0.0 0.00 0.00 0.00 76 1016.4
20260502233602 8 217 4.8 0.0 0.00 0.00 0.00 76 1016.4
20260502233501 8 217 4.8 0.0 0.00 0.00 0.00 76 1016.4
20260502233402 8 215 0.0 0.0 0.00 0.00 0.00 76 1016.4
20260502233301 8 215 0.0 0.0 0.00 0.00 0.00 76 1016.4
20260502233202 8 205 0.0 0.0 0.00 0.00 0.00 76 1016.4
20260502233101 8 205 0.0 0.0 0.00 0.00 0.00 76 1016.4
20260502233002 8 217 4.8 0.0 0.00 0.00 0.00 76 1016.4
20260502232902 8 217 4.8 0.0 0.00 0.00 0.00 76 1016.4
20260502232801 8 217 4.8 0.0 0.00 0.00 0.00 76 1016.4
20260502232702 8 215 6.4 0.0 0.00 0.00 0.00 76 1016.4
20260502232601 8 215 6.4 0.0 0.00 0.00 0.00 76 1016.4
20260502232502 8 212 0.0 0.0 0.00 0.00 0.00 75 1016.4
20260502232401 8 212 0.0 0.0 0.00 0.00 0.00 75 1016.4
20260502232304 8 212 0.0 0.0 0.00 0.00 0.00 75 1016.4
20260502232202 8 212 0.0 0.0 0.00 0.00 0.00 75 1016.3
20260502232101 8 212 0.0 0.0 0.00 0.00 0.00 75 1016.4
20260502232002 8 212 0.0 0.0 0.00 0.00 0.00 75 1016.4
20260502231901 8 220 0.0 0.0 0.00 0.00 0.00 76 1016.4
20260502231802 8 220 0.0 0.0 0.00 0.00 0.00 76 1016.4
20260502231701 8 222 0.0 0.0 0.00 0.00 0.00 75 1016.4
20260502231602 8 222 0.0 0.0 0.00 0.00 0.00 75 1016.4
20260502231502 8 222 0.0 0.0 0.00 0.00 0.00 75 1016.4
20260502231401 9 230 0.0 0.0 0.00 0.00 0.00 73 1016.4
20260502231302 9 230 0.0 0.0 0.00 0.00 0.00 73 1016.4
20260502231201 9 230 0.0 0.0 0.00 0.00 0.00 73 1016.4
20260502231102 9 220 0.0 0.0 0.00 0.00 0.00 73 1016.5
20260502231001 9 220 0.0 0.0 0.00 0.00 0.00 73 1016.4
20260502230902 9 225 0.0 0.0 0.00 0.00 0.00 73 1016.4
20260502230802 9 225 0.0 0.0 0.00 0.00 0.00 73 1016.5
20260502230701 10 210 0.0 0.0 0.00 0.00 0.00 72 1016.4
20260502230602 10 210 0.0 0.0 0.00 0.00 0.00 72 1016.5
20260502230501 10 210 0.0 0.0 0.00 0.00 0.00 72 1016.5
20260502230402 10 210 0.0 0.0 0.00 0.00 0.00 73 1016.5
20260502230301 10 210 0.0 0.0 0.00 0.00 0.00 73 1016.5
20260502230202 10 210 0.0 0.0 0.00 0.00 0.00 73 1016.5
20260502230002 10 210 0.0 0.0 0.00 0.00 0.00 73 1016.5
20260502225902 10 217 0.0 0.0 0.00 0.00 0.00 73 1016.5
20260502225802 10 217 0.0 0.0 0.00 0.00 0.00 73 1016.5
20260502225702 10 225 0.0 0.0 0.00 0.00 0.00 71 1016.5
20260502225601 10 225 0.0 0.0 0.00 0.00 0.00 71 1016.5
20260502225502 10 225 0.0 0.0 0.00 0.00 0.00 71 1016.5
20260502225401 10 220 0.0 0.0 0.00 0.00 0.00 71 1016.6
20260502225304 10 220 0.0 0.0 0.00 0.00 0.00 71 1016.5
20260502225201 10 222 6.4 0.0 0.00 0.00 0.00 70 1016.6
20260502225102 10 222 6.4 0.0 0.00 0.00 0.00 70 1016.6
20260502225002 10 222 6.4 0.0 0.00 0.00 0.00 70 1016.6
20260502224901 10 220 0.0 0.0 0.00 0.00 0.00 70 1016.6
20260502224802 10 220 0.0 0.0 0.00 0.00 0.00 70 1016.6
20260502224701 10 220 0.0 0.0 0.00 0.00 0.00 70 1016.6
20260502224602 11 222 0.0 0.0 0.00 0.00 0.00 70 1016.7
20260502224501 11 222 0.0 0.0 0.00 0.00 0.00 70 1016.7
20260502224402 11 217 0.0 0.0 0.00 0.00 0.00 68 1016.7
20260502224301 11 217 0.0 0.0 0.00 0.00 0.00 68 1016.7
20260502224202 11 217 0.0 0.0 0.00 0.00 0.00 68 1016.7
20260502224102 11 230 0.0 0.0 0.00 0.00 0.00 66 1016.6
20260502224001 11 230 0.0 0.0 0.00 0.00 0.00 66 1016.7
20260502223902 12 230 0.0 0.0 0.00 0.00 0.00 65 1016.7
20260502223801 12 230 0.0 0.0 0.00 0.00 0.00 65 1016.7
20260502223702 12 235 0.0 0.0 0.00 0.00 0.00 63 1016.7
20260502223601 12 235 0.0 0.0 0.00 0.00 0.00 63 1016.7
20260502223502 12 235 0.0 0.0 0.00 0.00 0.00 63 1016.7
20260502223402 12 235 0.0 0.0 0.00 0.00 0.00 60 1016.7
20260502223301 12 235 0.0 0.0 0.00 0.00 0.00 60 1016.7
20260502223202 12 235 0.0 0.0 0.00 0.00 0.00 58 1016.7
20260502223101 12 235 0.0 0.0 0.00 0.00 0.00 58 1016.7
20260502223002 12 235 0.0 0.0 0.00 0.00 0.00 58 1016.7
20260502222902 13 147 0.0 0.0 0.00 0.00 0.00 56 1016.7
20260502222802 13 147 0.0 0.0 0.00 0.00 0.00 56 1016.7
20260502222701 13 147 0.0 0.0 0.00 0.00 0.00 56 1016.6
20260502222602 13 265 0.0 0.0 0.00 0.00 0.00 56 1016.7
20260502222502 13 265 0.0 0.0 0.00 0.00 0.00 56 1016.7
20260502222401 13 100 0.0 0.0 0.00 0.00 0.00 53 1016.7
20260502222305 13 100 0.0 0.0 0.00 0.00 0.00 53 1016.7
20260502222201 13 100 0.0 0.0 0.00 0.00 0.00 53 1016.7
20260502222102 13 95 0.0 0.0 0.00 0.00 0.00 53 1016.7
20260502222001 13 95 0.0 0.0 0.00 0.00 0.00 53 1016.7
20260502221902 14 60 0.0 0.0 0.00 0.00 0.00 53 1016.7
20260502221802 14 60 0.0 0.0 0.00 0.00 0.00 53 1016.7
20260502221702 14 60 0.0 0.0 0.00 0.00 0.00 53 1016.7
20260502221601 14 75 0.0 0.0 0.00 0.00 0.00 51 1016.6
20260502221502 14 75 0.0 0.0 0.00 0.00 0.00 51 1016.7
20260502221402 14 75 0.0 0.0 0.00 0.00 0.00 51 1016.7
20260502221301 14 75 0.0 0.0 0.00 0.00 0.00 51 1016.7
20260502221202 14 75 0.0 0.0 0.00 0.00 0.00 51 1016.7
20260502221101 15 77 0.0 0.0 0.00 0.00 0.00 51 1016.7
20260502221002 15 77 0.0 0.0 0.00 0.00 0.00 51 1016.7
20260502220901 15 77 0.0 0.0 0.00 0.00 0.00 51 1016.7
20260502220802 15 77 0.0 0.0 0.00 0.00 0.00 51 1016.7
20260502220702 15 77 0.0 0.0 0.00 0.00 0.00 51 1016.7
20260502220601 15 57 8.0 0.0 0.00 0.00 0.00 51 1016.7
20260502220502 15 57 8.0 0.0 0.00 0.00 0.00 51 1016.7
20260502220401 15 57 8.0 0.0 0.00 0.00 0.00 51 1016.7
20260502220302 14 70 6.4 0.0 0.00 0.00 0.00 52 1016.7
20260502220201 14 70 6.4 0.0 0.00 0.00 0.00 52 1016.7
20260502220002 14 57 4.8 0.0 0.00 0.00 0.00 52 1016.7
20260502215902 14 57 4.8 0.0 0.00 0.00 0.00 52 1016.8
20260502215802 14 55 6.4 0.0 0.00 0.00 0.00 53 1016.7
20260502215701 14 55 6.4 0.0 0.00 0.00 0.00 53 1016.7
20260502215602 14 55 6.4 0.0 0.00 0.00 0.00 53 1016.8
20260502215501 13 65 4.8 0.0 0.00 0.00 0.00 55 1016.8
20260502215402 13 65 4.8 0.0 0.00 0.00 0.00 55 1016.8
20260502215304 13 60 6.4 0.0 0.00 0.00 0.00 57 1016.7
20260502215202 13 60 6.4 0.0 0.00 0.00 0.00 57 1016.8
20260502215102 13 60 6.4 0.0 0.00 0.00 0.00 57 1016.8
20260502215001 12 47 4.8 0.0 0.00 0.00 0.00 59 1016.8
20260502214902 12 47 4.8 0.0 0.00 0.00 0.00 59 1016.8
20260502214801 12 130 0.0 0.0 0.00 0.00 0.00 61 1016.8
20260502214702 12 130 0.0 0.0 0.00 0.00 0.00 61 1017.0
20260502214602 12 130 0.0 0.0 0.00 0.00 0.00 61 1016.8
20260502214502 12 197 0.0 0.0 0.00 0.00 0.00 61 1016.8
20260502214402 12 197 0.0 0.0 0.00 0.00 0.00 61 1016.8
20260502214301 12 185 0.0 0.0 0.00 0.00 0.00 60 1016.8
20260502214202 12 185 0.0 0.0 0.00 0.00 0.00 60 1017.0
20260502214101 12 180 0.0 0.0 0.00 0.00 0.00 60 1017.0
20260502214002 12 180 0.0 0.0 0.00 0.00 0.00 60 1017.0
20260502213901 12 180 0.0 0.0 0.00 0.00 0.00 60 1017.0
20260502213802 12 170 0.0 0.0 0.00 0.00 0.00 58 1017.0
20260502213702 12 170 0.0 0.0 0.00 0.00 0.00 58 1017.0
20260502213601 12 170 0.0 0.0 0.00 0.00 0.00 59 1017.0
20260502213502 12 170 0.0 0.0 0.00 0.00 0.00 59 1017.0
20260502213401 12 170 0.0 0.0 0.00 0.00 0.00 59 1017.0
20260502213302 13 140 0.0 0.0 0.00 0.00 0.00 58 1017.0
20260502213201 13 140 0.0 0.0 0.00 0.00 0.00 58 1017.1
20260502213102 13 140 0.0 0.0 0.00 0.00 0.00 58 1017.0
20260502213001 13 245 0.0 0.0 0.00 0.00 0.00 58 1017.0
20260502212902 13 245 0.0 0.0 0.00 0.00 0.00 58 1017.1
20260502212802 13 245 0.0 0.0 0.00 0.00 0.00 58 1017.1
20260502212701 13 245 0.0 0.0 0.00 0.00 0.00 58 1017.1
20260502212602 13 110 6.4 0.0 0.00 0.00 0.00 58 1017.1
20260502212501 13 110 6.4 0.0 0.00 0.00 0.00 58 1017.1
20260502212402 13 110 6.4 0.0 0.00 0.00 0.00 58 1017.1
20260502212304 13 50 0.0 0.0 0.00 0.00 0.00 58 1017.1
20260502212202 13 50 0.0 0.0 0.00 0.00 0.00 58 1017.1
20260502212102 13 50 0.0 0.0 0.00 0.00 0.00 58 1017.1
20260502212001 12 240 4.8 0.0 0.00 0.00 0.00 60 1017.1
20260502211902 12 240 4.8 0.0 0.00 0.00 0.00 60 1017.1
20260502211801 12 87 0.0 0.0 0.00 0.00 0.00 60 1017.1
20260502211702 12 87 0.0 0.0 0.00 0.00 0.00 60 1017.1
20260502211602 12 87 0.0 0.0 0.00 0.00 0.00 60 1017.1
20260502211502 12 87 0.0 0.0 0.00 0.00 0.00 60 1017.1
20260502211402 12 87 0.0 0.0 0.00 0.00 0.00 60 1017.1
20260502211301 12 87 4.8 0.0 0.00 0.00 0.00 62 1017.1
20260502211202 12 87 4.8 0.0 0.00 0.00 0.00 62 1017.2
20260502211101 12 87 0.0 0.0 0.00 0.00 0.00 63 1017.1
20260502211005 12 87 0.0 0.0 0.00 0.00 0.00 63 1017.1
20260502210901 12 87 0.0 0.0 0.00 0.00 0.00 63 1017.2
20260502210802 12 87 0.0 0.0 0.00 0.00 0.00 63 1017.2
20260502210702 12 70 0.0 0.0 0.00 0.00 0.00 64 1017.2
20260502210601 12 70 0.0 0.0 0.00 0.00 0.00 64 1017.2
20260502210502 11 50 4.8 0.0 0.00 0.00 0.00 66 1017.2
20260502210401 11 50 4.8 0.0 0.00 0.00 0.00 66 1017.2
20260502210302 11 140 0.0 0.0 0.00 0.00 0.00 69 1017.2
20260502210201 11 140 0.0 0.0 0.00 0.00 0.00 69 1017.2
20260502210002 10 157 0.0 0.0 0.00 0.00 0.00 70 1017.1
20260502205902 10 157 0.0 0.0 0.00 0.00 0.00 70 1017.2
20260502205802 10 157 0.0 0.0 0.00 0.00 0.00 70 1017.2
20260502205701 10 190 0.0 0.0 0.00 0.00 0.00 72 1017.1
20260502205602 10 190 0.0 0.0 0.00 0.00 0.00 72 1017.1
20260502205501 10 180 0.0 0.0 0.00 0.00 0.00 72 1017.2
20260502205402 10 180 0.0 0.0 0.00 0.00 0.00 72 1017.2
20260502205301 10 175 0.0 0.0 0.00 0.00 0.00 73 1017.2
20260502205202 10 175 0.0 0.0 0.00 0.00 0.00 73 1017.1
20260502205102 10 175 0.0 0.0 0.00 0.00 0.00 73 1017.2
20260502205001 10 205 0.0 0.0 0.00 0.00 0.00 74 1017.2
20260502204902 10 205 0.0 0.0 0.00 0.00 0.00 74 1017.2
20260502204801 10 205 0.0 0.0 0.00 0.00 0.00 74 1017.2
20260502204702 10 205 0.0 0.0 0.00 0.00 0.00 74 1017.2
20260502204602 10 205 0.0 0.0 0.00 0.00 0.00 74 1017.2
20260502204502 10 205 0.0 0.0 0.00 0.00 0.00 74 1017.2
20260502204401 10 205 0.0 0.0 0.00 0.00 0.00 74 1017.2
20260502204302 10 205 0.0 0.0 0.00 0.00 0.00 74 1017.2
20260502204202 10 192 0.0 0.0 0.00 0.00 0.00 74 1017.3
20260502204101 10 192 0.0 0.0 0.00 0.00 0.00 74 1017.3
20260502204002 10 202 0.0 0.0 0.00 0.00 0.00 75 1017.3
20260502203901 10 202 0.0 0.0 0.00 0.00 0.00 75 1017.2
20260502203802 10 202 0.0 0.0 0.00 0.00 0.00 75 1017.2
20260502203702 10 197 0.0 0.0 0.00 0.00 0.00 75 1017.2
20260502203602 10 197 0.0 0.0 0.00 0.00 0.00 75 1017.3
20260502203502 10 197 0.0 0.0 0.00 0.00 0.00 75 1017.2
20260502203401 10 207 4.8 0.0 0.00 0.00 0.00 75 1017.3
20260502203302 10 207 4.8 0.0 0.00 0.00 0.00 75 1017.2
20260502203201 10 210 4.8 0.0 0.00 0.00 0.00 75 1017.3
20260502203102 10 210 4.8 0.0 0.00 0.00 0.00 75 1017.3
20260502203001 10 207 6.4 0.0 0.00 0.00 0.00 75 1017.3
20260502202902 10 207 6.4 0.0 0.00 0.00 0.00 75 1017.3
20260502202801 10 207 6.4 0.0 0.00 0.00 0.00 75 1017.3
20260502202702 10 210 4.8 0.0 0.00 0.00 0.00 75 1017.3
20260502202602 10 210 4.8 0.0 0.00 0.00 0.00 75 1017.3
20260502202501 10 210 4.8 0.0 0.00 0.00 0.00 75 1017.3
20260502202402 10 207 0.0 0.0 0.00 0.00 0.00 75 1017.3
20260502202304 10 207 0.0 0.0 0.00 0.00 0.00 75 1017.3
20260502202202 10 207 0.0 0.0 0.00 0.00 0.00 75 1017.3
20260502202101 10 207 0.0 0.0 0.00 0.00 0.00 75 1017.4
20260502202002 10 207 0.0 0.0 0.00 0.00 0.00 75 1017.3
20260502201901 10 207 0.0 0.0 0.00 0.00 0.00 75 1017.4
20260502201801 10 207 0.0 0.0 0.00 0.00 0.00 75 1017.4
20260502201702 10 210 0.0 0.0 0.00 0.00 0.00 75 1017.4
20260502201601 10 210 0.0 0.0 0.00 0.00 0.00 75 1017.4
20260502201502 10 210 0.0 0.0 0.00 0.00 0.00 75 1017.3
20260502201401 10 212 0.0 0.0 0.00 0.00 0.00 75 1017.4
20260502201302 10 212 0.0 0.0 0.00 0.00 0.00 75 1017.4
20260502201201 10 212 0.0 0.0 0.00 0.00 0.00 75 1017.4
20260502201102 10 215 4.8 0.0 0.00 0.00 0.00 74 1017.4
20260502201002 10 215 4.8 0.0 0.00 0.00 0.00 74 1017.4
20260502200901 10 215 4.8 0.0 0.00 0.00 0.00 74 1017.4
20260502200802 10 215 4.8 0.0 0.00 0.00 0.00 74 1017.4
20260502200701 10 215 4.8 0.0 0.00 0.00 0.00 74 1017.4
20260502200602 10 215 4.8 0.0 0.00 0.00 0.00 74 1017.5
20260502200501 10 215 4.8 0.0 0.00 0.00 0.00 74 1017.4
20260502200402 10 215 4.8 0.0 0.00 0.00 0.00 74 1017.5
20260502200301 10 215 4.8 0.0 0.00 0.00 0.00 74 1017.4
20260502200202 10 215 4.8 0.0 0.00 0.00 0.00 74 1017.5
20260502200001 10 215 3.2 0.0 0.00 0.00 0.00 74 1017.5
20260502195902 10 215 4.8 0.0 0.00 0.00 0.00 74 1017.5
20260502195801 10 215 4.8 0.0 0.00 0.00 0.00 74 1017.5
20260502195703 10 212 4.8 0.0 0.00 0.00 0.00 74 1017.5
20260502195601 10 212 4.8 0.0 0.00 0.00 0.00 74 1017.5
20260502195502 10 212 4.8 0.0 0.00 0.00 0.00 74 1017.5
20260502195402 10 200 6.4 0.0 0.00 0.00 0.00 74 1017.5
20260502195301 10 200 6.4 0.0 0.00 0.00 0.00 74 1017.5
20260502195202 10 200 6.4 0.0 0.00 0.00 0.00 74 1017.5
20260502195101 10 217 4.8 0.0 0.00 0.00 0.00 74 1017.5
20260502195002 10 217 4.8 0.0 0.00 0.00 0.00 74 1017.5
20260502194902 10 217 4.8 0.0 0.00 0.00 0.00 74 1017.5
20260502194802 10 207 0.0 0.0 0.00 0.00 0.00 74 1017.5
20260502194702 10 207 0.0 0.0 0.00 0.00 0.00 74 1017.5
20260502194601 10 207 0.0 0.0 0.00 0.00 0.00 74 1017.4
20260502194502 10 207 0.0 0.0 0.00 0.00 0.00 74 1017.5
20260502194401 10 210 0.0 0.0 0.00 0.00 0.00 73 1017.5
20260502194302 10 210 0.0 0.0 0.00 0.00 0.00 73 1017.5
20260502194201 10 210 0.0 0.0 0.00 0.00 0.00 73 1017.4
20260502194102 11 187 0.0 0.0 0.00 0.00 0.00 73 1017.5
20260502194001 11 187 0.0 0.0 0.00 0.00 0.00 73 1017.5
20260502193901 11 187 0.0 0.0 0.00 0.00 0.00 73 1017.4
20260502193802 11 195 0.0 0.0 0.00 0.00 0.00 72 1017.5
20260502193701 11 195 0.0 0.0 0.00 0.00 0.00 72 1017.5
20260502193602 11 200 0.0 0.0 0.00 0.00 0.00 72 1017.5
20260502193501 11 200 0.0 0.0 0.00 0.00 0.00 72 1017.5
20260502193402 11 200 0.0 0.0 0.00 0.00 0.00 72 1017.5
20260502193302 11 210 0.0 0.0 0.00 0.00 0.00 71 1017.5
20260502193201 11 210 0.0 0.0 0.00 0.00 0.00 71 1017.5
20260502193102 11 205 0.0 0.0 0.00 0.00 0.00 70 1017.5
20260502193001 11 205 0.0 0.0 0.00 0.00 0.00 70 1017.5
20260502192902 11 205 0.0 0.0 0.00 0.00 0.00 70 1017.5
20260502192801 11 205 0.0 0.0 0.00 0.00 0.00 70 1017.5
20260502192702 11 205 0.0 0.0 0.00 0.00 0.00 70 1017.5
20260502192602 11 207 0.0 0.0 0.00 0.00 0.00 70 1017.5
20260502192501 11 207 0.0 0.0 0.00 0.00 0.00 70 1017.5
20260502192402 12 220 0.0 0.0 0.00 0.00 0.00 69 1017.5
20260502192304 12 220 0.0 0.0 0.00 0.00 0.00 69 1017.5
20260502192202 12 220 0.0 0.0 0.00 0.00 0.00 69 1017.5
20260502192101 12 220 0.0 0.0 0.00 0.00 0.00 69 1017.5
20260502192002 12 220 0.0 0.0 0.00 0.00 0.00 69 1017.4
20260502191902 12 220 0.0 0.0 0.00 0.00 0.00 69 1017.5
20260502191802 12 205 0.0 0.0 0.00 0.00 0.00 69 1017.5
20260502191702 12 205 0.0 0.0 0.00 0.00 0.00 69 1017.5
20260502191601 12 202 0.0 0.0 0.00 0.00 0.00 68 1017.5
20260502191502 12 202 0.0 0.0 0.00 0.00 0.00 68 1017.5
20260502191401 12 202 0.0 0.0 0.00 0.00 0.00 68 1017.5
20260502191302 12 202 0.0 0.0 0.00 0.00 0.00 68 1017.5
20260502191202 12 202 0.0 0.0 0.00 0.00 0.00 68 1017.5
20260502191101 13 190 0.0 0.0 0.00 0.00 0.00 67 1017.5
20260502191002 13 190 0.0 0.0 0.00 0.00 0.00 67 1017.5
20260502190901 13 190 0.0 0.0 0.00 0.00 0.00 67 1017.4
20260502190802 13 190 0.0 0.0 0.00 0.00 0.00 67 1017.5
20260502190701 13 190 0.0 0.0 0.00 0.00 0.00 67 1017.4
20260502190602 13 190 0.0 0.0 0.00 0.00 0.00 67 1017.5
20260502190501 13 190 0.0 0.0 0.00 0.00 0.00 67 1017.5
20260502190402 13 190 0.0 0.0 0.00 0.00 0.00 67 1017.4
20260502190302 13 195 0.0 0.0 0.00 0.00 0.00 66 1017.5
20260502190201 13 195 0.0 0.0 0.00 0.00 0.00 66 1017.4
20260502190001 13 202 0.0 0.0 0.00 0.00 0.00 63 1017.4
20260502185902 13 202 0.0 0.0 0.00 0.00 0.00 63 1017.4
20260502185801 13 202 0.0 0.0 0.00 0.00 0.00 63 1017.5
20260502185702 13 202 0.0 0.0 0.00 0.00 0.00 63 1017.4
20260502185603 13 202 0.0 0.0 0.00 0.00 0.00 63 1017.4
20260502185501 14 202 0.0 0.0 0.00 0.00 0.00 63 1017.4
20260502185402 14 202 0.0 0.0 0.00 0.00 0.00 63 1017.4
20260502185301 14 185 0.0 0.0 0.00 0.00 0.00 62 1017.4
20260502185202 14 185 0.0 0.0 0.00 0.00 0.00 62 1017.4
20260502185101 14 185 0.0 0.0 0.00 0.00 0.00 62 1017.4
20260502185002 15 192 0.0 0.0 0.00 0.00 0.00 61 1017.4
20260502184902 15 192 0.0 0.0 0.00 0.00 0.00 61 1017.4
20260502184801 15 210 0.0 0.0 0.00 0.00 0.00 59 1017.4
20260502184702 15 210 0.0 0.0 0.00 0.00 0.00 59 1017.4
20260502184601 15 210 0.0 0.0 0.00 0.00 0.00 59 1017.4
20260502184502 15 215 0.0 0.0 0.00 0.00 0.00 58 1017.4
20260502184401 15 215 0.0 0.0 0.00 0.00 0.00 58 1017.4
20260502184302 15 197 0.0 0.0 0.00 0.00 0.00 57 1017.3
20260502184202 15 197 0.0 0.0 0.00 0.00 0.00 57 1017.3
20260502184102 15 197 0.0 0.0 0.00 0.00 0.00 57 1017.3
20260502184002 16 185 4.8 0.0 0.00 0.00 0.00 56 1017.3
20260502183901 16 185 4.8 0.0 0.00 0.00 0.00 56 1017.3
20260502183802 17 210 0.0 0.0 0.00 0.00 0.00 52 1017.3
20260502183701 17 210 0.0 0.0 0.00 0.00 0.00 52 1017.3
20260502183602 17 210 0.0 0.0 0.00 0.00 0.00 52 1017.3
20260502183501 17 210 0.0 0.0 0.00 0.00 0.00 52 1017.4
20260502183402 17 210 0.0 0.0 0.00 0.00 0.00 52 1017.3
20260502183302 17 210 0.0 0.0 0.00 0.00 0.00 52 1017.3
20260502183201 17 210 0.0 0.0 0.00 0.00 0.00 52 1017.3
20260502183102 17 210 0.0 0.0 0.00 0.00 0.00 52 1017.3
20260502183001 17 210 0.0 0.0 0.00 0.00 0.00 52 1017.3
20260502182902 17 210 0.0 0.0 0.00 0.00 0.00 52 1017.4
20260502182801 17 210 0.0 0.0 0.00 0.00 0.00 52 1017.3
20260502182702 17 202 0.0 0.0 0.00 0.00 0.00 50 1017.3
20260502182602 17 202 0.0 0.0 0.00 0.00 0.00 50 1017.4
20260502182501 17 202 0.0 0.0 0.00 0.00 0.00 50 1017.3
20260502182402 18 195 0.0 0.0 0.00 0.00 0.00 49 1017.3
20260502182304 18 195 0.0 0.0 0.00 0.00 0.00 49 1017.3
20260502182202 18 165 0.0 0.0 0.00 0.00 0.00 49 1017.3
20260502182101 18 165 0.0 0.0 0.00 0.00 0.00 49 1017.3
20260502182002 18 165 0.0 0.0 0.00 0.00 0.00 49 1017.3
20260502181902 18 115 0.0 0.0 0.00 0.00 0.00 48 1017.3
20260502181802 18 115 0.0 0.0 0.00 0.00 0.00 48 1017.3
20260502181702 18 112 0.0 0.0 0.00 0.00 0.00 47 1017.3
20260502181601 18 112 0.0 0.0 0.00 0.00 0.00 47 1017.3
20260502181502 18 112 0.0 0.0 0.00 0.00 0.00 47 1017.3
20260502181401 18 100 0.0 0.0 0.00 0.00 0.00 44 1017.3
20260502181302 18 100 0.0 0.0 0.00 0.00 0.00 44 1017.3
20260502181201 18 100 0.0 0.0 0.00 0.00 0.00 44 1017.3
20260502181102 18 92 4.8 0.0 0.00 0.00 0.00 43 1017.3
20260502181002 19 85 4.8 0.0 0.00 0.00 0.00 43 1017.3
20260502180901 19 85 4.8 0.0 0.00 0.00 0.00 43 1017.3
20260502180802 19 85 4.8 0.0 0.00 0.00 0.00 43 1017.3
20260502180701 19 75 6.4 0.0 0.00 0.00 0.00 42 1017.3
20260502180602 19 75 6.4 0.0 0.00 0.00 0.00 42 1017.3
20260502180501 19 75 6.4 0.0 0.00 0.00 0.00 42 1017.3
20260502180402 19 75 6.4 0.0 0.00 0.00 0.00 42 1017.3
20260502180301 19 75 6.4 0.0 0.00 0.00 0.00 42 1017.3
20260502180202 19 75 8.0 0.0 0.00 0.00 0.00 42 1017.3